Regional Weather Roundup
Issued by NWS Charleston, SC

Home | Current Version | Previous Version | Text Only | Print | Product List | Glossary On
Versions: 1 2 3 4 5 6 7 8 9 10 11 12 13 14 15 16 17 18 19 20 21 22 23 24 25 26 27 28 29 30 31 32 33 34 35 36 37 38 39 40 41 42 43 44 45 46 47 48 49 50
965
ASUS42 KCHS 120011
RWRCHS

REGIONAL WEATHER ROUNDUP
NATIONAL WEATHER SERVICE CHARLESTON SC
700 PM EST MON DEC 11 2017

NOTE: "FAIR" INDICATES FEW OR NO CLOUDS BELOW 12,000 FEET WITH NO
SIGNIFICANT WEATHER AND/OR OBSTRUCTIONS TO VISIBILITY.

NOT ALL STATIONS ARE QUALITY CONTROLLED. USE DATA WITH CAUTION...
ESPECIALLY DEWPOINT OBSERVATIONS.

SCZ027-030-031-034>040-042>050-120100-
...SOUTHEAST SOUTH CAROLINA...

CITY           SKY/WX    TMP DP  RH WIND       PRES   REMARKS
N CHARLESTON   CLEAR     45  36  70 S6        30.07S
6HR MIN TEMP:  44; 6HR MAX TEMP:  58;

WATERFRONT PRK   N/A     51  41  68 VRB3      29.93R
JOHNS ISLAND   FAIR      48  41  76 SW5       30.07F
PINOPOLIS        N/A     48  37  66 CALM      29.99S
MONCKS CORNER  FAIR      41  37  87 CALM      30.06F
SUMMERVILLE    FAIR      41  37  87 CALM      30.07F
BEAUFORT MCAS  CLEAR     46  40  79 SW3       30.08S
6HR MIN TEMP:  46; 6HR MAX TEMP:  60;

BEAUFORT ARPT  FAIR      45  41  87 SW3       30.08S
HILTON HEAD IS CLEAR     46  43  87 W6        30.09F
WALTERBORO     CLEAR     41  37  87 CALM      30.07S
ALLENDALE      FAIR      48  39  71 CALM      30.05F

...SOUTHERN MIDLANDS AND PEE DEE...

CITY           SKY/WX    TMP DP  RH WIND       PRES   REMARKS
GEORGETOWN     FAIR      39  39 100 CALM      30.08S
KINGSTREE      FAIR      39  37  93 CALM      30.06S
ORANGEBURG     CLEAR     45  35  68 CALM      30.04F
6HR MIN TEMP:  45; 6HR MAX TEMP:  57;

BARNWELL         N/A     52  37  58 SW6       30.04F
AIKEN          FAIR      48  34  57 SW7       30.06S
MANNING        FAIR      41  30  65 MISG      30.05F
COLUMBIA       CLEAR     49  37  63 S3        30.02S
6HR MIN TEMP:  49; 6HR MAX TEMP:  60;

SUMTER         CLEAR     45  36  71 SW3       30.01S
6HR MIN TEMP:  44; 6HR MAX TEMP:  57;

FLORENCE       CLEAR     42  35  76 S5        30.04F
6HR MIN TEMP:  40; 6HR MAX TEMP:  55;

MYRTLE BEACH   CLEAR     47  40  76 SW3       30.08R
N MYRTLE BEACH CLEAR     40  38  93 CALM      30.06R
6HR MIN TEMP:  40; 6HR MAX TEMP:  52;


$$

GAZ063-065-086>088-099>101-113>116-118-119-134>141-150-120100-
...SOUTHEAST GEORGIA...

CITY           SKY/WX    TMP DP  RH WIND       PRES   REMARKS
SAVANNAH ARPT  CLEAR     45  38  76 S3        30.09S
6HR MIN TEMP:  44; 6HR MAX TEMP:  62;

HUNTER AAF     CLEAR     50  37  62 S5        30.07S
6HR MIN TEMP:  47; 6HR MAX TEMP:  62;

FORT STEWART   CLEAR     47  39  75 CALM      30.08S
6HR MIN TEMP:  47; 6HR MAX TEMP:  62;

STATESBORO     CLEAR     43  37  79 CALM      30.08S
SYLVANIA       CLEAR     47  42  80 CALM      30.08S
CLAXTON        FAIR      44  42  92 CALM      30.09S

...CSRA...CENTRAL AND FAR SOUTHEAST GEORGIA...

CITY           SKY/WX    TMP DP  RH WIND       PRES   REMARKS
THOMSON        CLEAR     43  37  78 SW3       30.07F
AUGUSTA-BUSH   CLEAR     45  37  73 CALM      30.04S
6HR MIN TEMP:  45; 6HR MAX TEMP:  63;

AUGUSTA-DANIEL CLEAR     53  34  48 S5        30.04S
SWAINSBORO     FAIR      52  37  58 NW5       30.07F
VIDALIA        CLEAR     52  39  62 SW3       30.09R
EASTMAN        FAIR      47  32  56 SW3       30.11R
HAZLEHURST     FAIR      50  36  57 SW3       30.09R
ALMA           CLEAR     46  40  79 S3        30.10S
6HR MIN TEMP:  46; 6HR MAX TEMP:  63;

WAYCROSS       CLEAR     49  37  63 CALM      30.11S
JESUP          NOT AVBL
BAXLEY         FAIR      46  37  71 CALM      30.10R
BRUNSWICK      CLEAR     46  37  71 SW5       30.12S
SAINT SIMONS   CLEAR     54  40  59 SW8       30.12R
6HR MIN TEMP:  53; 6HR MAX TEMP:  61;


$$

SCZ027-028-034-036>038-045-046-048>050-GAZ119-141-120100-
...LAKE AND SUPPLEMENTAL COASTAL OBSERVATIONS...

STATION/POSITION TIME  TEMP    WIND        PRES    WAVE   SWELL
                       AIR SEA DIR/SP/G            HT/PER HT/PER/DIR
                 (UTC) (F)     (DEG/KT/KT) (MB)    (FT/S) (FT/S/D)
WINYAH BAY       2245   48     210/  2     1018.0
LAKE MURRAY      2320   56     200/  9/ 10 1015.6
ACE BASIN NERRS  2245   48        CALM     1018.0
FORT PULASKI     2348   51 55  200/  3/  4 1019.1F
SAPELO ISLAND    NOT AVBL

$$

ANZ835-935-AMZ111-154-330-350-352-354-370-450-454-472-120100-
...C-MAN AND BUOY OBSERVATIONS...

STATION/POSITION TIME  TEMP    WIND        PRES    WAVE   SWELL
                       AIR SEA DIR/SP/G            HT/PER HT/PER/DIR
                 (UTC) (F)     (DEG/KT/KT) (MB)    (FT/S) (FT/S/D)
BUOY 41004       2350      74  270/ 14/ 17 1018.2R   3/ 5   2/100/ 8
BUOY 41008       2350   59 61  210/ 14/ 17 1019.6R   2/ 3   2/ 80/ 9
FOLLY BEACH CMAN 2300   52     230/  7/  9 1019.0R
CAPERS NEARSHORE 2308   51 57  240/ 14/ 17 1018.0R
FRIPP NEARSHORE  2308   53 56  220/ 10/ 17 1017.6F


STATION/POSITION TIME  TEMP    WIND        PRES    WAVE   SWELL
                       AIR SEA DIR/SP/G            HT/PER HT/PER/DIR
                 (UTC) (F)     (DEG/KT/KT) (MB)    (FT/S) (FT/S/D)
5E ST. MARYS GA  2330      60                N/A     2/10
FRYING PAN BUOY  2350   53 61  250/  6/  8 1017.2S   3/ 6   2/200/ 6
BUOY 41025       2350   53 75  320/  2/  6 1017.3F   3/ 6   3/200/ 6
CAPE LOOKOUT NC  2300          200/  3/  4 1017.5F
BUOY 41002       2250   66 76  260/ 12/ 16 1018.1    4/ 9   3/ 80/ 9
BUOY 41010       NOT AVBL
ST AUGUSTINE FL  0000   53 62  230/  5/  7 1021.7R


$$




USA.gov is the U.S. government's official web portal to all federal, state and local government web resources and services.